Flag for Canada Weather past 2 weeks in Qikiqtarjuaq, Nunavut Territory, Canada

Now
-6 °F

Snow flurries. Scattered clouds.


Feels Like: -22 °F
Forecast: -8 / -2 °F
Wind: 9 mph from East

Location: Broughton Island Airport

Current Time: Dec 18, 2014 at 1:45:49 PM

Latest Report: Dec 18, 2014 at 1:00 PM


Visibility: 12 mi

Pressure: 29.83 "Hg

Humidity: 77%

Dew point: -11 °F

Location of QikiqtarjuaqLocation

Historic Weather in Qikiqtarjuaq — Graph

°F

Qikiqtarjuaq temperature yesterday

Maximum temperature yesterday: 0 °F (at 1:00 PM)
Minimum temperature yesterday: -8 °F (at 12:00 AM)
Average temperature yesterday: -3 °F

Past Weeks' High & Low Weather Summary

 TemperatureHumidityPressure
High14 °F (Dec 5, 3:57 AM)92% (Dec 11, 3:53 AM)30.27 "Hg (Dec 11, 3:53 AM)
Low-17 °F (Dec 10, 7:00 AM)26% (Dec 13, 1:00 AM)29.33 "Hg (Dec 5, 3:57 AM)
Average1 °F75%29.76 "Hg
* Reported Dec 3 12:00 Noon — Dec 18 12:00 Noon, Qikiqtarjuaq, Weather by CustomWeather, © 2014

Note: Actual official high and low records may vary slightly from our data, if they occured in-between our weather recording intervals... More about our weather records

Advertising

Qikiqtarjuaq weather history for previous 24 hours

 ConditionsComfort  
Time TempWeatherWind HumidityBarometerVisibility
12:00 PM
Dec 18
-2 °FSnow flurries. Partly sunny.15 mph77%29.83 "Hg10 mi
11:00 AM-2 °FSnow flurries. Partly sunny.12 mph71%29.81 "Hg10 mi
10:00 AM0 °FSnow flurries. Overcast.No wind65%29.81 "Hg10 mi
9:00 AM-4 °FSnow flurries. Partly sunny.6 mph71%29.80 "Hg10 mi
8:00 AM-4 °FPassing clouds.No wind77%29.78 "Hg9 mi
7:00 AM-2 °FSunny.6 mph71%29.77 "Hg9 mi
6:00 AM0 °FOvercast.14 mph78%29.76 "Hg9 mi
5:03 AM0 °FLight snow. More clouds than sun.20 mph84%29.74 "Hg7 mi
4:03 AM0 °FLight snow. Overcast.6 mph84%29.73 "Hg5 mi
3:00 AM-2 °FLight snow. Passing clouds.2 mph84%29.71 "Hg9 mi
2:03 AM-2 °FLight snow. Overcast.No wind84%29.69 "Hg2 mi
1:00 AM1 °FLight snow. Mostly cloudy.8 mph85%29.67 "Hg9 mi
12:55 AM0 °FLight snow. Overcast.7 mph84%29.67 "Hg9 mi
12:03 AM0 °FLight snow. Passing clouds.6 mph84%29.65 "Hg3 mi
12:01 AM0 °FLight snow. Overcast.5 mph84%29.65 "Hg2 mi
11:01 PM
Dec 17
0 °FLight snow. Overcast.2 mph84%29.63 "Hg3 mi
10:00 PM0 °FLight snow. Overcast.2 mph84%29.61 "Hg2 mi
9:03 PM0 °FLight snow. Overcast.No wind84%29.60 "Hg2 mi
8:00 PM0 °FLight snow. Overcast.No wind78%29.59 "Hg3 mi
7:00 PM0 °FLight snow. Overcast.2 mph84%29.59 "Hg1 mi
6:00 PM0 °FLight snow. Overcast.2 mph84%29.60 "Hg1 mi
5:01 PM0 °FLight snow. Overcast.3 mph78%29.62 "Hg1 mi
4:00 PM0 °FLight snow. Overcast.No wind84%29.63 "Hg4 mi
3:00 PM0 °FLight snow. Overcast.3 mph78%29.65 "Hg6 mi
2:00 PM-2 °FLight snow. Overcast.5 mph77%29.65 "Hg6 mi
1:52 PM-2 °FLight snow. Overcast.3 mph71%29.65 "Hg6 mi
1:00 PM0 °FOvercast.3 mph65%29.65 "Hg15 mi
Weather by CustomWeather, © 2014

See weather overviewHow to use our weather pages